Volver al catálogo

USA 558

ActivoMilitarVLEO
NORAD 65704·PAYLOAD·🇺🇸 United States

Lanzado Sep 22, 2025 desde Vandenberg Space Force Base

Loading…

Próximos Pases (próximas 24 horas)

TLE

ObsoletoSource: Mike McCants

Época: Aug 14, 2026, 20:23 UTC

1 65704U 25213A   26226.84991379 0.00000000  00000-0  00000-0 0    06
2 65704  70.0182 239.7113 0001000  82.6256 277.3743 14.96713610    09

Sigue USA 558 en tiempo real con AllMySat

Download on the App Store